Regional Weather Roundup
Issued by NWS

Home | Current Version | Previous Version | Text Only | Print | Product List | Glossary Off
Versions: 1 2 3 4 5 6 7 8 9 10 11 12 13 14 15 16 17 18 19 20 21 22 23 24 25 26 27 28 29 30 31 32 33 34 35 36 37 38 39 40 41 42 43 44 45 46 47 48 49 50

697
ASUS43 KOAX 141210
RWRNE

WEATHER ROUNDUP FOR NEBRASKA
NATIONAL WEATHER SERVICE OMAHA NE
600 AM CST SUN FEB 14 2016

NOTES: SATELLITE DATA IS BEING USED TO AUGMENT CLOUD COVER ABOVE
       12000 FEET.
       "FAIR" INDICATES FEW OR NO CLOUDS BELOW 12,000 FEET WITH NO
       SIGNIFICANT WEATHER AND/OR OBSTRUCTIONS TO VISIBILITY.

  * THESE STATIONS DO NOT REPORT WEATHER SUCH AS RAIN...SNOW OR FOG.

NEZ001>004-019>022-054>056-141300-
NEBRASKA PANHANDLE

CITY           SKY/WX    TMP DP  RH WIND       PRES   REMARKS
SCOTTSBLUFF    CLOUDY    25  22  88 CALM      29.93F
6HR MIN TEMP:  25; 6HR MAX TEMP:  35;

ALLIANCE       CLOUDY    27  22  81 W9        29.89F WCI  18
6HR MIN TEMP:  27; 6HR MAX TEMP:  35;

CHADRON        CLEAR     27  22  81 CALM      29.91F
6HR MIN TEMP:  27; 6HR MAX TEMP:  35;

KIMBALL        CLOUDY    29  21  72 N8        29.91F WCI  21
SIDNEY         CLEAR     27  22  81 NW9       29.94F WCI  18
6HR MIN TEMP:  26; 6HR MAX TEMP:  33;

$$

NEZ057>060-069>072-079>082-141300-
SOUTHWEST NEBRASKA

CITY           SKY/WX    TMP DP  RH WIND       PRES   REMARKS
NORTH PLATTE   CLEAR     30  24  78 W10       29.91S WCI  21
6HR MIN TEMP:  26; 6HR MAX TEMP:  34;

IMPERIAL       CLEAR     34  24  67 NW13      29.95F WCI  25
6HR MIN TEMP:  31; 6HR MAX TEMP:  36;

LEXINGTON      CLEAR     32  27  80 W10       29.90S WCI  24
MCCOOK         CLEAR     33  26  75 NW14      29.94S WCI  23
6HR MIN TEMP:  23; 6HR MAX TEMP:  34;

OGALLALA       CLEAR     30  24  81 SW5       29.94F WCI  25
$$

NEZ005>010-023>029-035>040-094-141300-
NORTH CENTRAL NEBRASKA

CITY           SKY/WX    TMP DP  RH WIND       PRES   REMARKS
VALENTINE      CLEAR     31  27  85 W12       29.85R WCI  22
6HR MIN TEMP:  31; 6HR MAX TEMP:  39; 6HR PCP: TRACE;

AINSWORTH      MOCLDY    35  30  83 W15       29.84S WCI  25
BROKEN BOW     CLEAR     33  27  78 W10       29.86S WCI  25
6HR MIN TEMP:  25; 6HR MAX TEMP:  38; 6HR PCP: TRACE;

O`NEILL        CLOUDY    38  34  85 NW14G21   29.80S WCI  30
ORD            MOCLDY    38  31  76 W10       29.83R WCI  31
6HR MIN TEMP:  20; 6HR MAX TEMP:  40; 6HR PCP: TRACE;

THEDFORD       CLEAR     36  29  77 W13       29.86F WCI  27
$$

NEZ041-046>049-061>064-073>077-083>087-141300-
SOUTH CENTRAL NEBRASKA

CITY           SKY/WX    TMP DP  RH WIND       PRES   REMARKS
GRAND ISLAND   CLEAR     26  20  77 W16       29.86F WCI  14
6HR MIN TEMP:  17; 6HR MAX TEMP:  27; 6HR PCP: TRACE;

AURORA         CLEAR     19  14  79 SW15      29.86F WCI   5
HASTINGS       CLEAR     20  13  74 SW10      29.88F WCI   9
6HR MIN TEMP:  17; 6HR MAX TEMP:  20;

HEBRON         CLEAR     20  11  67 SW6       29.94F WCI  12
HOLDREGE       CLEAR     21  17  85 W7        29.90F WCI  13
KEARNEY *      CLEAR     34  27  75 W13       29.88F WCI  25
YORK           CLOUDY    19  14  79 SW14      29.88F WCI   6
$$

NEZ011>018-030>034-042>045-141300-
NORTHEAST NEBRASKA

CITY           SKY/WX    TMP DP  RH WIND       PRES   REMARKS
NORFOLK        LGT SNOW  21  18  88 S5        29.81F FOG     WCI  15
6HR MIN TEMP:  17; 6HR MAX TEMP:  21; 6HR PCP:  0.10;

ALBION         CLOUDY    32  28  85 NW7       29.80F WCI  25
BLAIR          CLOUDY    21  10  62 S18       29.89F WCI   6
COLUMBUS *     CLOUDY    23  10  58 SW9       29.85F WCI  13
FREMONT        CLOUDY    20   9  63 S15G21    29.90F WCI   6
TEKAMAH        LGT SNOW  19  12  74 S14       29.93F WCI   6
6HR MIN TEMP:  18; 6HR MAX TEMP:  20; 6HR PCP: TRACE;

WAYNE          LGT SNOW  17  14  86 S15       29.85F WCI   3
$$

NEZ050>053-065>068-078-088>093-141300-
SOUTHEAST NEBRASKA

CITY           SKY/WX    TMP DP  RH WIND       PRES   REMARKS
LINCOLN        CLOUDY    21  10  62 S14       29.93F WCI   8
6HR MIN TEMP:  18; 6HR MAX TEMP:  21;

OMAHA EPPLEY   CLOUDY    22   8  55 S16       29.95F WCI   8
6HR MIN TEMP:  20; 6HR MAX TEMP:  22; 6HR PCP: TRACE;

BEATRICE       CLOUDY    21   8  57 S13       29.95F WCI   8
FALLS CITY     CLOUDY    24   7  48 S10       30.00F WCI  14
6HR MIN TEMP:  20; 6HR MAX TEMP:  24;

NEBRASKA CITY  CLOUDY    22   6  49 S20       29.95F WCI   8
PLATTSMOUTH    CLOUDY    22   8  55 S15G21    29.93F WCI   8
$$

NEZ044-045-051>053-067-141300-
OMAHA AREA

CITY           SKY/WX    TMP DP  RH WIND       PRES   REMARKS
OMAHA EPPLEY   CLOUDY    22   8  55 S16       29.95F WCI   8
6HR MIN TEMP:  20; 6HR MAX TEMP:  22; 6HR PCP: TRACE;

BLAIR          CLOUDY    21  10  62 S18       29.89F WCI   6
FREMONT        CLOUDY    20   9  63 S15G21    29.90F WCI   6
MILLARD        CLOUDY    22   9  56 S13       29.93F WCI  10
OFFUTT AFB     CLOUDY    22   7  51 S13       29.93F WCI  10
PLATTSMOUTH    CLOUDY    22   8  55 S15G21    29.93F WCI   8
WAHOO          CLOUDY    21  11  66 S15       29.90F WCI   8
$$




USA.gov is the U.S. government's official web portal to all federal, state and local government web resources and services.